DW9210 Weather Reports


Display with metric or nautical units.
time (UTC)temp
F
wind
direction
speed
MPH
gust
MPH
rain 1hr
in
rain 24hr
in
rain mn
in
humidity
%
barometer
mb
20260831220503 94 229 1.0 5.0 0.00 0.00 0.00 52 1015.9
20260831220003 94 245 1.0 5.0 0.00 0.00 0.00 54 1015.9
20260831215524 94 248 1.0 4.0 0.00 0.00 0.00 54 1015.9
20260831215003 94 243 2.0 4.0 0.00 0.00 0.00 55 1015.9
20260831214503 94 248 2.0 4.0 0.00 0.00 0.00 56 1016.0
20260831214003 93 258 2.0 6.0 0.00 0.00 0.00 54 1016.1
20260831213503 94 269 3.0 9.0 0.00 0.00 0.00 56 1016.1
20260831213003 94 266 2.0 9.0 0.00 0.00 0.00 52 1016.2
20260831212524 94 250 1.0 4.0 0.00 0.00 0.00 53 1016.1
20260831212003 94 271 1.0 4.0 0.00 0.00 0.00 55 1016.2
20260831211503 94 294 1.0 3.0 0.00 0.00 0.00 53 1016.3
20260831211003 94 272 2.0 5.0 0.00 0.00 0.00 53 1016.3
20260831210503 94 257 2.0 5.0 0.00 0.00 0.00 55 1016.3
20260831210003 94 238 2.0 5.0 0.00 0.00 0.00 56 1016.3
20260831205503 93 244 2.0 5.0 0.00 0.00 0.00 54 1016.4
20260831205003 93 252 2.0 5.0 0.00 0.00 0.00 58 1016.4
20260831204503 93 257 3.0 8.0 0.00 0.00 0.00 57 1016.4
20260831204003 93 258 3.0 8.0 0.00 0.00 0.00 55 1016.5
20260831203503 93 253 2.0 6.0 0.00 0.00 0.00 56 1016.5
20260831203003 92 249 1.0 4.0 0.00 0.00 0.00 62 1016.6
20260831202524 92 243 2.0 5.0 0.00 0.00 0.00 57 1016.6
20260831202003 92 247 2.0 6.0 0.00 0.00 0.00 55 1016.7
20260831201524 92 261 2.0 6.0 0.00 0.00 0.00 57 1016.8
20260831201003 92 257 2.0 6.0 0.00 0.00 0.00 57 1016.8
20260831200524 92 238 1.0 6.0 0.00 0.00 0.00 57 1016.9
20260831200003 91 246 2.0 5.0 0.00 0.00 0.00 59 1017.1
20260831195503 91 258 2.0 5.0 0.00 0.00 0.00 57 1017.1
20260831195003 92 259 2.0 7.0 0.00 0.00 0.00 59 1017.1
20260831194503 92 255 2.0 7.0 0.00 0.00 0.00 59 1017.1
20260831194003 92 259 1.0 3.0 0.00 0.00 0.00 56 1017.1
20260831193503 92 243 1.0 6.0 0.00 0.00 0.00 60 1017.2
20260831193003 93 252 2.0 6.0 0.00 0.00 0.00 57 1017.2
20260831192524 93 263 3.0 7.0 0.00 0.00 0.00 59 1017.3
20260831192003 92 254 4.0 10.0 0.00 0.00 0.00 57 1017.3
20260831191503 92 243 3.0 10.0 0.00 0.00 0.00 58 1017.4
20260831191003 92 266 3.0 9.0 0.00 0.00 0.00 59 1017.4
20260831190503 92 278 3.0 9.0 0.00 0.00 0.00 58 1017.5
20260831190003 92 274 3.0 6.0 0.00 0.00 0.00 62 1017.5
20260831185503 91 266 3.0 6.0 0.00 0.00 0.00 61 1017.6
20260831185003 92 268 3.0 6.0 0.00 0.00 0.00 61 1017.6
20260831184503 91 261 4.0 8.0 0.00 0.00 0.00 59 1017.6
20260831184003 91 267 5.0 10.0 0.00 0.00 0.00 59 1017.7
20260831183503 91 273 5.0 10.0 0.00 0.00 0.00 57 1017.7
20260831183024 91 261 4.0 7.0 0.00 0.00 0.00 64 1017.6
20260831182503 91 242 3.0 8.0 0.00 0.00 0.00 58 1017.7
20260831182003 91 246 2.0 8.0 0.00 0.00 0.00 62 1017.7
20260831181503 91 251 2.0 6.0 0.00 0.00 0.00 64 1017.8
20260831181003 91 238 2.0 11.0 0.00 0.00 0.00 62 1017.8
20260831180503 91 255 4.0 11.0 0.00 0.00 0.00 59 1017.8
20260831180003 91 258 4.0 10.0 0.00 0.00 0.00 62 1017.8
20260831175503 91 244 3.0 8.0 0.00 0.00 0.00 62 1017.9
20260831175003 90 257 4.0 8.0 0.00 0.00 0.00 59 1017.9
20260831174503 90 263 4.0 8.0 0.00 0.00 0.00 61 1017.9
20260831174003 90 272 3.0 8.0 0.00 0.00 0.00 61 1017.9
20260831173503 90 279 4.0 8.0 0.00 0.00 0.00 65 1018.1
20260831173003 90 275 5.0 10.0 0.00 0.00 0.00 64 1018.1
20260831172503 90 266 5.0 10.0 0.00 0.00 0.00 59 1018.1
20260831172003 90 262 5.0 9.0 0.00 0.00 0.00 66 1018.1
20260831171503 91 266 4.0 9.0 0.00 0.00 0.00 62 1018.1
20260831171003 91 263 4.0 9.0 0.00 0.00 0.00 63 1018.2
20260831170503 91 244 4.0 11.0 0.00 0.00 0.00 65 1018.2
20260831170024 91 231 4.0 11.0 0.00 0.00 0.00 64 1018.2
20260831165503 90 229 4.0 11.0 0.00 0.00 0.00 64 1018.3
20260831165003 90 230 4.0 10.0 0.00 0.00 0.00 64 1018.3
20260831164503 90 233 5.0 11.0 0.00 0.00 0.00 62 1018.3
20260831164003 90 233 4.0 11.0 0.00 0.00 0.00 65 1018.4
20260831163503 89 233 4.0 12.0 0.00 0.00 0.00 66 1018.3
20260831163003 89 242 4.0 12.0 0.00 0.00 0.00 65 1018.4
20260831162503 89 244 5.0 9.0 0.00 0.00 0.00 67 1018.5
20260831162024 88 237 4.0 9.0 0.00 0.00 0.00 67 1018.5
20260831161503 88 245 3.0 9.0 0.00 0.00 0.00 67 1018.4
20260831161003 88 246 4.0 10.0 0.00 0.00 0.00 69 1018.5
20260831160503 87 250 4.0 11.0 0.00 0.00 0.00 68 1018.5
20260831160003 87 264 4.0 11.0 0.00 0.00 0.00 68 1018.5
20260831155503 88 268 4.0 10.0 0.00 0.00 0.00 70 1018.5
20260831155003 88 265 4.0 10.0 0.00 0.00 0.00 68 1018.4
20260831154503 88 262 4.0 11.0 0.00 0.00 0.00 69 1018.3
20260831154003 88 251 5.0 11.0 0.00 0.00 0.00 68 1018.4
20260831153503 88 239 3.0 8.0 0.00 0.00 0.00 70 1018.4
20260831153003 87 263 3.0 7.0 0.00 0.00 0.00 71 1018.4
20260831152524 87 261 4.0 8.0 0.00 0.00 0.00 71 1018.4
20260831152003 87 265 3.0 9.0 0.00 0.00 0.00 74 1018.5
20260831151503 87 261 3.0 8.0 0.00 0.00 0.00 71 1018.5
20260831151003 87 243 3.0 7.0 0.00 0.00 0.00 73 1018.6
20260831150503 86 250 3.0 7.0 0.00 0.00 0.00 74 1018.5
20260831150024 86 258 2.0 7.0 0.00 0.00 0.00 73 1018.5
20260831145503 85 251 3.0 8.0 0.00 0.00 0.00 77 1018.6
20260831145003 85 252 3.0 8.0 0.00 0.00 0.00 73 1018.5
20260831144503 85 259 3.0 8.0 0.00 0.00 0.00 75 1018.5
20260831144003 84 260 3.0 7.0 0.00 0.00 0.00 77 1018.4
20260831143503 84 261 3.0 7.0 0.00 0.00 0.00 77 1018.4
20260831143003 84 264 3.0 7.0 0.00 0.00 0.00 78 1018.3
20260831142503 84 269 2.0 6.0 0.00 0.00 0.00 79 1018.3
20260831142003 83 267 2.0 6.0 0.00 0.00 0.00 81 1018.3
20260831141503 83 258 2.0 6.0 0.00 0.00 0.00 79 1018.3
20260831141003 82 255 2.0 5.0 0.00 0.00 0.00 80 1018.2
20260831140503 81 255 2.0 6.0 0.00 0.00 0.00 82 1018.3
20260831140003 81 243 2.0 6.0 0.00 0.00 0.00 82 1018.2
20260831135503 80 237 3.0 6.0 0.00 0.00 0.00 82 1018.3
20260831135003 80 234 3.0 6.0 0.00 0.00 0.00 83 1018.2
20260831134503 79 230 1.0 4.0 0.00 0.00 0.00 86 1018.2
20260831134003 78 211 1.0 4.0 0.00 0.00 0.00 88 1018.2
20260831133503 77 209 1.0 4.0 0.00 0.00 0.00 89 1018.2
20260831133003 76 215 1.0 4.0 0.00 0.00 0.00 91 1018.2
20260831132503 75 213 1.0 3.0 0.00 0.00 0.00 93 1018.2
20260831132003 74 214 1.0 3.0 0.00 0.00 0.00 94 1018.3
20260831131503 74 207 1.0 3.0 0.00 0.00 0.00 94 1018.3
20260831131003 73 203 1.0 3.0 0.00 0.00 0.00 95 1018.3
20260831130503 73 205 1.0 2.0 0.00 0.00 0.00 95 1018.2
20260831130024 73 203 1.0 3.0 0.00 0.00 0.00 96 1018.2
20260831125503 72 208 0.0 3.0 0.00 0.00 0.00 97 1018.2
20260831125003 72 215 0.0 2.0 0.00 0.00 0.00 97 1018.2
20260831124503 72 0 0.0 0.0 0.00 0.00 0.00 97 1018.1
20260831124003 71 0 0.0 0.0 0.00 0.00 0.00 97 1018.1
20260831123503 71 0 0.0 0.0 0.00 0.00 0.00 97 1018.1
20260831123003 71 0 0.0 0.0 0.00 0.00 0.00 97 1018.1
20260831122503 71 0 0.0 0.0 0.00 0.00 0.00 98 1018.2
20260831122003 70 0 0.0 0.0 0.00 0.00 0.00 97 1018.0
20260831121503 70 0 0.0 0.0 0.00 0.00 0.00 97 1018.0
20260831121003 70 0 0.0 0.0 0.00 0.00 0.00 97 1018.0
20260831120524 69 0 0.0 0.0 0.00 0.00 0.00 97 1017.9
20260831120003 69 0 0.0 0.0 0.00 0.00 0.00 97 1017.8
20260831115524 69 0 0.0 0.0 0.00 0.00 0.00 97 1017.7
20260831115003 68 0 0.0 0.0 0.00 0.00 0.00 97 1017.7
20260831114503 68 0 0.0 0.0 0.00 0.00 0.00 97 1017.7
20260831114003 68 0 0.0 0.0 0.00 0.00 0.00 97 1017.7
20260831113503 68 0 0.0 0.0 0.00 0.00 0.00 97 1017.7
20260831113003 68 0 0.0 0.0 0.00 0.00 0.00 97 1017.6
20260831112503 69 0 0.0 0.0 0.00 0.00 0.00 97 1017.5
20260831112003 68 0 0.0 0.0 0.00 0.00 0.00 97 1017.4
20260831111503 69 0 0.0 0.0 0.00 0.00 0.00 97 1017.4
20260831111003 69 0 0.0 0.0 0.00 0.00 0.00 97 1017.3
20260831110503 69 0 0.0 0.0 0.00 0.00 0.00 97 1017.3
20260831110024 69 0 0.0 0.0 0.00 0.00 0.00 97 1017.2
20260831105503 69 0 0.0 0.0 0.00 0.00 0.00 97 1017.1
20260831105024 68 0 0.0 0.0 0.00 0.00 0.00 97 1017.1
20260831104503 68 0 0.0 0.0 0.00 0.00 0.00 97 1017.1
20260831104003 68 0 0.0 0.0 0.00 0.00 0.00 97 1017.0
20260831103503 68 0 0.0 0.0 0.00 0.00 0.00 97 1017.0
20260831103003 68 0 0.0 0.0 0.00 0.00 0.00 97 1017.0
20260831102503 68 0 0.0 0.0 0.00 0.00 0.00 97 1016.9
20260831102003 68 0 0.0 0.0 0.00 0.00 0.00 97 1016.9
20260831101503 68 0 0.0 0.0 0.00 0.00 0.00 97 1016.8
20260831101003 68 0 0.0 0.0 0.00 0.00 0.00 96 1016.8
20260831100503 68 0 0.0 0.0 0.00 0.00 0.00 96 1016.7
20260831100003 68 0 0.0 0.0 0.00 0.00 0.00 96 1016.6
20260831095524 68 0 0.0 0.0 0.00 0.00 0.00 96 1016.6
20260831095024 68 0 0.0 0.0 0.00 0.00 0.00 96 1016.6
20260831094503 68 0 0.0 0.0 0.00 0.00 0.00 96 1016.4
20260831094003 68 0 0.0 0.0 0.00 0.00 0.00 96 1016.5
20260831093503 68 0 0.0 0.0 0.00 0.00 0.00 97 1016.6
20260831093003 68 0 0.0 0.0 0.00 0.00 0.00 97 1016.6
20260831092524 68 0 0.0 0.0 0.00 0.00 0.00 97 1016.6
20260831092003 68 0 0.0 0.0 0.00 0.00 0.00 97 1016.6
20260831091503 68 0 0.0 0.0 0.00 0.00 0.00 96 1016.7
20260831091003 68 0 0.0 0.0 0.00 0.00 0.00 96 1016.6
20260831090524 68 0 0.0 0.0 0.00 0.00 0.00 97 1016.6
20260831090003 68 0 0.0 0.0 0.00 0.00 0.00 97 1016.5
20260831085524 68 0 0.0 0.0 0.00 0.00 0.00 96 1016.5
20260831085003 67 0 0.0 0.0 0.00 0.00 0.00 96 1016.4
20260831084503 68 0 0.0 0.0 0.00 0.00 0.00 96 1016.4
20260831084003 68 0 0.0 0.0 0.00 0.00 0.00 96 1016.3
20260831083524 68 0 0.0 0.0 0.00 0.00 0.00 96 1016.3
20260831083003 68 0 0.0 0.0 0.00 0.00 0.00 96 1016.2
20260831082503 68 0 0.0 0.0 0.00 0.00 0.00 96 1016.3
20260831082003 68 0 0.0 0.0 0.00 0.00 0.00 96 1016.3
20260831081503 68 0 0.0 0.0 0.00 0.00 0.00 96 1016.3
20260831081003 68 0 0.0 0.0 0.00 0.00 0.00 96 1016.3
20260831080524 68 0 0.0 0.0 0.00 0.00 0.00 96 1016.3
20260831080003 68 0 0.0 0.0 0.00 0.00 0.00 96 1016.3
20260831075503 68 0 0.0 0.0 0.00 0.00 0.00 96 1016.4
20260831075003 68 0 0.0 0.0 0.00 0.00 0.00 96 1016.4
20260831074524 68 0 0.0 0.0 0.00 0.00 0.00 96 1016.4
20260831074003 68 0 0.0 0.0 0.00 0.00 0.00 96 1016.5
20260831073503 68 0 0.0 0.0 0.00 0.00 0.00 95 1016.5
20260831073003 68 0 0.0 0.0 0.00 0.00 0.00 96 1016.5
20260831072503 68 0 0.0 0.0 0.00 0.00 0.00 96 1016.5
20260831072003 68 0 0.0 0.0 0.00 0.00 0.00 96 1016.6
20260831071503 68 0 0.0 0.0 0.00 0.00 0.00 96 1016.6
20260831071003 68 0 0.0 0.0 0.00 0.00 0.00 96 1016.7
20260831070503 68 0 0.0 0.0 0.00 0.00 0.00 96 1016.7
20260831070003 68 0 0.0 0.0 0.00 0.00 0.00 95 1016.8
20260831065503 68 0 0.0 0.0 0.00 0.00 0.00 95 1016.8
20260831065003 68 0 0.0 0.0 0.00 0.00 0.00 95 1016.7
20260831064503 69 0 0.0 0.0 0.00 0.00 0.00 95 1016.6
20260831064003 69 0 0.0 0.0 0.00 0.00 0.00 95 1016.6
20260831063503 69 0 0.0 0.0 0.00 0.00 0.00 95 1016.7
20260831063003 69 0 0.0 0.0 0.00 0.00 0.00 95 1016.7
20260831062503 69 0 0.0 0.0 0.00 0.00 0.00 95 1016.7
20260831062003 69 0 0.0 0.0 0.00 0.00 0.00 95 1016.8
20260831061503 69 0 0.0 0.0 0.00 0.00 0.00 95 1016.8
20260831061003 69 0 0.0 0.0 0.00 0.00 0.00 95 1016.7
20260831060503 69 0 0.0 0.0 0.00 0.00 0.00 95 1016.8
20260831060003 69 0 0.0 0.0 0.00 0.00 0.00 95 1016.8
20260831055503 69 0 0.0 0.0 0.00 0.00 0.00 95 1016.8
20260831055003 69 0 0.0 0.0 0.00 0.00 0.00 95 1016.9
20260831054503 69 0 0.0 0.0 0.00 0.00 0.00 95 1016.9
20260831054003 69 0 0.0 0.0 0.00 0.00 0.00 95 1016.9
20260831053503 69 0 0.0 0.0 0.00 0.00 0.00 95 1016.9
20260831053003 69 0 0.0 0.0 0.00 0.00 0.00 95 1017.0
20260831052503 70 0 0.0 0.0 0.00 0.00 0.00 95 1017.0
20260831052003 70 0 0.0 0.0 0.00 0.00 0.00 95 1017.0
20260831051503 70 0 0.0 0.0 0.00 0.00 0.00 95 1017.0
20260831051003 70 0 0.0 0.0 0.00 0.00 0.00 95 1017.0
20260831050503 70 0 0.0 0.0 0.00 0.00 0.00 95 1017.0
20260831050024 70 0 0.0 0.0 0.00 0.00 0.00 95 1016.9
20260831045503 70 0 0.0 0.0 0.00 0.00 0.00 94 1016.9
20260831045003 70 0 0.0 0.0 0.00 0.00 0.00 95 1016.9
20260831044503 70 0 0.0 0.0 0.00 0.00 0.00 95 1016.8
20260831044024 70 0 0.0 0.0 0.00 0.00 0.00 95 1016.9
20260831043524 70 0 0.0 0.0 0.00 0.00 0.00 94 1016.9
20260831043003 70 0 0.0 0.0 0.00 0.00 0.00 94 1017.0
20260831042503 70 0 0.0 0.0 0.00 0.00 0.00 94 1016.9
20260831042003 70 0 0.0 0.0 0.00 0.00 0.00 94 1016.9
20260831041545 70 0 0.0 0.0 0.00 0.00 0.00 94 1016.9
20260831041003 70 0 0.0 0.0 0.00 0.00 0.00 94 1017.0
20260831040503 70 0 0.0 0.0 0.00 0.00 0.00 94 1017.0
20260831040003 70 0 0.0 0.0 0.00 0.00 0.00 94 1017.1
20260831035503 70 0 0.0 0.0 0.00 0.00 0.00 94 1017.0
20260831035003 70 0 0.0 0.0 0.00 0.00 0.00 93 1017.0
20260831034503 70 0 0.0 0.0 0.00 0.00 0.00 94 1017.1
20260831034024 70 0 0.0 0.0 0.00 0.00 0.00 94 1017.1
20260831033503 70 0 0.0 0.0 0.00 0.00 0.00 93 1017.1
20260831033003 71 0 0.0 0.0 0.00 0.00 0.00 93 1017.0
20260831032503 71 0 0.0 0.0 0.00 0.00 0.00 93 1017.1
20260831032003 71 0 0.0 0.0 0.00 0.00 0.00 93 1017.1
20260831031503 71 0 0.0 0.0 0.00 0.00 0.00 93 1017.1
20260831031003 71 0 0.0 0.0 0.00 0.00 0.00 93 1017.1
20260831030503 71 0 0.0 0.0 0.00 0.00 0.00 93 1017.1
20260831030003 71 0 0.0 0.0 0.00 0.00 0.00 93 1017.1
20260831025503 71 0 0.0 0.0 0.00 0.00 0.00 93 1017.0
20260831025003 72 0 0.0 0.0 0.00 0.00 0.00 93 1017.0
20260831024503 72 0 0.0 0.0 0.00 0.00 0.00 92 1017.0
20260831024003 72 0 0.0 0.0 0.00 0.00 0.00 92 1017.1
20260831023503 72 0 0.0 0.0 0.00 0.00 0.00 92 1017.0
20260831023003 72 0 0.0 0.0 0.00 0.00 0.00 92 1017.0
20260831022524 72 0 0.0 0.0 0.00 0.00 0.00 93 1016.9
20260831022003 72 0 0.0 0.0 0.00 0.00 0.00 92 1017.0
20260831021524 72 0 0.0 0.0 0.00 0.00 0.00 92 1017.1
20260831021003 72 0 0.0 0.0 0.00 0.00 0.00 91 1017.1
20260831020503 73 0 0.0 0.0 0.00 0.00 0.00 92 1017.1
20260831020003 73 0 0.0 0.0 0.00 0.00 0.00 92 1017.0
20260831015503 73 0 0.0 0.0 0.00 0.00 0.00 91 1017.0
20260831015003 73 0 0.0 0.0 0.00 0.00 0.00 91 1016.9
20260831014503 74 0 0.0 0.0 0.00 0.00 0.00 91 1016.9
20260831014003 74 0 0.0 0.0 0.00 0.00 0.00 90 1016.7
20260831013503 74 0 0.0 0.0 0.00 0.00 0.00 90 1016.7
20260831013003 74 0 0.0 0.0 0.00 0.00 0.00 90 1016.6
20260831012503 74 0 0.0 0.0 0.00 0.00 0.00 90 1016.6
20260831012003 74 0 0.0 0.0 0.00 0.00 0.00 89 1016.6
20260831011503 75 0 0.0 0.0 0.00 0.00 0.00 88 1016.6
20260831011003 75 0 0.0 0.0 0.00 0.00 0.00 88 1016.5
20260831010503 75 0 0.0 0.0 0.00 0.00 0.00 88 1016.3
20260831010003 76 0 0.0 0.0 0.00 0.00 0.00 87 1016.3
20260831005524 76 0 0.0 0.0 0.00 0.00 0.00 87 1016.3
20260831005024 76 0 0.0 0.0 0.00 0.00 0.00 85 1016.2
20260831004524 77 0 0.0 0.0 0.00 0.00 0.00 84 1016.2
20260831004003 77 0 0.0 0.0 0.00 0.00 0.00 83 1016.1
20260831003503 78 0 0.0 0.0 0.00 0.00 0.00 82 1016.0
20260831003003 78 0 0.0 0.0 0.00 0.00 0.00 81 1016.1
20260831002503 79 0 0.0 0.0 0.00 0.00 0.00 78 1016.0
20260831002003 79 0 0.0 0.0 0.00 0.00 0.00 77 1016.0
20260831001503 80 0 0.0 0.0 0.00 0.00 0.00 75 1016.1
20260831001024 81 0 0.0 0.0 0.00 0.00 0.00 75 1016.0
20260831000503 82 0 0.0 0.0 0.00 0.00 0.00 73 1016.0
20260831000003 82 0 0.0 0.0 0.00 0.00 0.00 71 1016.0
20260830235503 83 194 0.0 1.0 0.00 0.00 0.00 69 1016.0
20260830235003 84 195 0.0 1.0 0.00 0.00 0.00 69 1015.9
20260830234503 84 188 0.0 1.0 0.00 0.00 0.00 67 1016.0
20260830234003 85 186 0.0 1.0 0.00 0.00 0.00 67 1015.9
20260830233503 86 194 0.0 2.0 0.00 0.00 0.00 64 1015.7
20260830233003 87 201 0.0 2.0 0.00 0.00 0.00 61 1015.8
20260830232503 88 203 0.0 2.0 0.00 0.00 0.00 57 1015.6
20260830232003 89 203 0.0 2.0 0.00 0.00 0.00 56 1015.6
20260830231503 90 209 0.0 3.0 0.00 0.00 0.00 56 1015.6
20260830231003 90 208 1.0 3.0 0.00 0.00 0.00 54 1015.6
20260830230503 91 210 1.0 2.0 0.00 0.00 0.00 53 1015.8
20260830230003 91 212 1.0 3.0 0.00 0.00 0.00 51 1015.8
20260830225503 91 225 1.0 3.0 0.00 0.00 0.00 52 1015.8
20260830225003 91 232 1.0 3.0 0.00 0.00 0.00 51 1015.7
20260830224503 91 240 1.0 2.0 0.00 0.00 0.00 50 1015.8
20260830224003 91 244 1.0 4.0 0.00 0.00 0.00 52 1015.8
20260830223503 91 243 1.0 4.0 0.00 0.00 0.00 53 1015.8
20260830223003 91 238 1.0 2.0 0.00 0.00 0.00 51 1015.9
20260830222524 90 238 1.0 2.0 0.00 0.00 0.00 52 1016.0
20260830222024 90 246 0.0 1.0 0.00 0.00 0.00 54 1016.0
20260830221503 90 246 0.0 1.0 0.00 0.00 0.00 59 1016.1
20260830221003 89 245 1.0 2.0 0.00 0.00 0.00 57 1016.2